Location: Althorst
(53.6379°N, 10.7715°E)
Time: 09:17:49
(UTC+00:00)

Cosmos 1743 - Pass Details

Date: 10 December 2019
Orbit: 511 x 527 km, 82.6° (Epoch: 28 January)

Event Time Altitude Azimuth Distance (km) Brightness Sun altitude
Rises 17:19:39 0° 349° (N) 2,659 6.3 -19.7°
Reaches altitude 10° 17:21:48 10° 352° (N) 1,769 5.4 -20.0°
Maximum altitude 17:25:40 75° 77° (ENE) 548 2.5 -20.6°
Drops below altitude 10° 17:29:33 10° 164° (SSE) 1,763 5.3 -21.2°
Sets 17:31:41 0° 166° (SSE) 2,649 6.3 -21.5°
